# Total inorganic carbon (TCO2) in a unit kg  of seawater measured onboard R/V Mirai (NODC Code: unknown) of the Japan Marine Science and Technology Center (JAMSTEC).,,,,,,,,,,,,,,,,,
# Cruise = MR01-K1,,,,,,,,,,,,,,,,,
# Measured on board by Meteorological Research Institute with an automated coulometric system manufactured by Nippon ANS Co. ,,,,,,,,,,,,,,,,,
"# Batches of Certified Reference Material for TCO2 analysis provided by Dr A. G. Dickson have been used for quality control. Significant offset, if any, has been corrected for.",,,,,,,,,,,,,,,,,
"# Total alkalinity (TA) has been calculated from TCO2, SST, salinity and pCO2 that have been concurrently measured using carbonic acid dissociation constants given by Roy et al., 1993.",,,,,,,,,,,,,,,,,
# Date and Time = UTC,,,,,,,,,,,,,,,,,
"# Quality flag (F); good=2, questionable=3, bad =4, not reported = 5, no data =9",,,,,,,,,,,,,,,,,
#,,,,,,,,,,,,,,,,,
Ship,Cruise,No.,Date,,,Time,,Latitude,Longitude,TCO2,F,TA_calcd,F,SST,F,SSS,F
,,,year,month,day,hour,min,deg,deg,umol/kg,,umol/kg,,degC,,,
Mirai,MR01-K1,1,2001,2,16,9,40,34.98,144.69,1995.9,2,2293.5,2,17.58,2,34.748,2
Mirai,MR01-K1,2,2001,2,16,10,13,34.84,144.75,1994.3,3,2292.6,3,17.59,2,34.748,2
Mirai,MR01-K1,3,2001,2,16,11,11,34.62,144.84,1994.9,2,2293.9,2,17.6,2,34.751,2
Mirai,MR01-K1,4,2001,2,16,11,43,34.48,144.9,1990,3,2290.9,3,17.71,2,34.755,2
Mirai,MR01-K1,5,2001,2,16,12,41,34.22,144.98,1994.4,3,2291.9,3,17.59,2,34.757,2
Mirai,MR01-K1,6,2001,2,16,13,13,34.07,144.97,1993.2,2,2294.4,2,17.66,2,34.727,2
Mirai,MR01-K1,7,2001,2,16,14,10,33.84,145.05,1998.1,2,2295.8,3,17.38,2,34.728,2
Mirai,MR01-K1,8,2001,2,16,14,42,33.71,145.14,2033.4,3,2285.1,3,13.32,2,34.476,2
Mirai,MR01-K1,9,2001,2,16,15,40,33.51,145.28,2037.8,2,2287.4,2,13.19,2,34.475,2
Mirai,MR01-K1,10,2001,2,16,16,12,33.41,145.39,2030.5,3,2288.9,3,14.08,2,34.491,2
Mirai,MR01-K1,11,2001,2,16,17,10,33.25,145.53,2002,3,2293.5,3,17.02,2,34.721,2
Mirai,MR01-K1,12,2001,2,16,17,42,33.13,145.58,2001.7,2,2298.2,2,17.53,2,34.737,2
Mirai,MR01-K1,13,2001,2,16,18,39,32.92,145.66,1993.1,3,2295.3,3,18.42,2,34.757,2
Mirai,MR01-K1,14,2001,2,16,19,12,32.8,145.73,1987.6,3,2303.6,3,18.84,2,34.734,2
Mirai,MR01-K1,15,2001,2,16,20,9,32.6,145.82,1974.2,3,2296.2,3,19.42,2,34.73,2
Mirai,MR01-K1,16,2001,2,16,20,42,32.47,145.88,1972.7,3,2292.7,3,19.4,2,34.739,2
Mirai,MR01-K1,17,2001,2,16,21,39,32.25,145.98,1984.5,3,2299.4,3,18.64,2,34.756,2
Mirai,MR01-K1,18,2001,2,16,22,12,32.13,146.03,1979.1,3,2300.4,3,19,2,34.758,2
Mirai,MR01-K1,19,2001,2,16,23,8,31.92,146.12,1976.4,3,2300.1,3,19.15,2,34.778,2
Mirai,MR01-K1,20,2001,2,16,23,41,31.8,146.17,1979.3,3,2301.7,3,19.06,2,34.769,2
Mirai,MR01-K1,21,2001,2,17,0,38,31.58,146.27,1983.2,2,2302,2,18.68,2,34.764,2
Mirai,MR01-K1,22,2001,2,17,1,11,31.46,146.32,1980.4,3,2298.9,3,18.74,2,34.764,2
Mirai,MR01-K1,23,2001,2,17,5,10,31,146.5,1986.8,3,2299.5,3,18.35,2,34.774,2
Mirai,MR01-K1,24,2001,2,17,5,43,30.94,146.53,1982.7,3,2298,3,18.45,2,34.768,2
Mirai,MR01-K1,25,2001,2,17,6,41,30.71,146.64,1982.8,3,2295.5,3,18.29,2,34.761,2
Mirai,MR01-K1,26,2001,2,17,7,13,30.59,146.7,1985.1,2,2299,2,18.42,2,34.751,2
Mirai,MR01-K1,27,2001,2,17,8,11,30.38,146.8,1981.9,2,2295.6,2,18.44,2,34.747,2
Mirai,MR01-K1,28,2001,2,17,8,43,30.26,146.86,1981.4,2,2297.2,2,18.61,2,34.743,2
Mirai,MR01-K1,29,2001,2,17,9,40,30.04,146.96,1980.7,3,2297.4,3,18.72,2,34.764,2
Mirai,MR01-K1,30,2001,2,17,10,12,29.95,147.01,1979.5,2,2296.7,2,18.71,2,34.77,2
Mirai,MR01-K1,31,2001,2,17,11,10,29.73,147.11,1980.3,2,2298,2,18.71,2,34.759,2
Mirai,MR01-K1,32,2001,2,17,11,42,29.6,147.16,1980.8,2,2298.2,2,18.72,2,34.766,2
Mirai,MR01-K1,33,2001,2,17,12,40,29.38,147.25,1978,2,2303.6,2,19.06,2,34.809,2
Mirai,MR01-K1,34,2001,2,17,13,12,29.24,147.31,1977.1,3,2301.9,3,19.22,2,34.809,2
Mirai,MR01-K1,35,2001,2,17,14,9,29.02,147.41,1981.9,2,2300.8,2,18.63,2,34.769,2
Mirai,MR01-K1,36,2001,2,17,14,42,29,147.42,1976,3,2305.3,3,19.85,2,34.848,2
Mirai,MR01-K1,37,2001,2,17,15,39,29,147.43,1977,3,2308.1,3,19.98,2,34.857,2
Mirai,MR01-K1,38,2001,2,17,16,12,29,147.43,1973.8,3,2303.9,3,20.04,2,34.862,2
Mirai,MR01-K1,39,2001,2,17,17,9,28.79,147.51,1969.5,3,2306.7,3,20.47,2,34.876,2
Mirai,MR01-K1,40,2001,2,17,17,42,28.67,147.56,1974,2,2310,2,20.33,2,34.878,2
Mirai,MR01-K1,41,2001,2,17,18,38,28.46,147.66,1976.1,2,2310.2,2,20.08,2,34.862,2
Mirai,MR01-K1,42,2001,2,17,19,11,28.32,147.71,1971.7,3,2303.4,3,20.03,2,34.853,2
Mirai,MR01-K1,43,2001,2,17,20,8,28.09,147.81,1980,3,2309.4,3,19.66,2,34.857,2
Mirai,MR01-K1,44,2001,2,17,20,41,27.98,147.87,1969.6,3,2306.9,3,20.53,2,34.868,2
Mirai,MR01-K1,45,2001,2,17,21,39,27.76,147.98,1972.3,3,2303.4,3,19.95,2,34.839,2
Mirai,MR01-K1,46,2001,2,17,22,11,27.64,148.04,1973.9,2,2311.5,2,20.46,2,34.877,2
Mirai,MR01-K1,47,2001,2,17,23,8,27.5,148.09,1970.5,3,2306.9,3,20.47,2,34.884,2
Mirai,MR01-K1,48,2001,2,18,3,40,26.76,148.38,1985.4,3,2319.4,3,20.11,2,34.902,2
Mirai,MR01-K1,49,2001,2,18,4,13,26.63,148.44,1972.4,3,2307.1,3,21.79,2,34.947,2
Mirai,MR01-K1,50,2001,2,18,5,8,26.41,148.55,1970.3,3,2311,3,23.17,2,35.115,2
Mirai,MR01-K1,51,2001,2,18,5,29,26.28,148.6,1970.8,3,2330.6,3,23.14,2,35.127,2
Mirai,MR01-K1,52,2001,2,18,6,41,26.04,148.7,1973.1,3,2337.1,3,23.61,2,35.219,2
Mirai,MR01-K1,53,2001,2,18,7,13,25.93,148.75,1968.7,3,2333,3,23.82,2,35.215,2
Mirai,MR01-K1,54,2001,2,18,8,10,25.7,148.85,1973.5,2,2335.9,2,23.5,2,35.225,2
Mirai,MR01-K1,55,2001,2,18,8,37,25.59,148.89,1970.7,3,2333.3,3,23.62,2,35.223,2
Mirai,MR01-K1,56,2001,2,18,9,40,25.35,148.99,1966.5,3,2330.8,3,23.74,2,35.215,2
Mirai,MR01-K1,57,2001,2,18,10,12,25.22,149.04,1965.8,3,2332.9,3,23.81,2,35.197,2
Mirai,MR01-K1,58,2001,2,18,11,10,24.99,149.15,1963.5,3,2332.4,3,24.31,2,35.212,2
Mirai,MR01-K1,59,2001,2,18,11,42,24.87,149.21,1963.2,3,2330.9,3,24.14,2,35.18,2
Mirai,MR01-K1,60,2001,2,18,12,39,24.65,149.31,1959.9,3,2330.2,3,24.43,2,35.164,2
Mirai,MR01-K1,61,2001,2,18,13,12,24.52,149.36,1960.6,3,2328.6,3,24.53,2,35.157,2
Mirai,MR01-K1,62,2001,2,18,14,9,24.29,149.45,1960.5,3,2328.2,3,24.43,2,35.155,2
Mirai,MR01-K1,63,2001,2,18,14,42,24.16,149.51,1955.5,3,2324.9,3,24.89,2,35.118,2
Mirai,MR01-K1,64,2001,2,18,15,39,23.94,149.6,1956.1,3,2326.4,3,24.96,2,35.104,2
Mirai,MR01-K1,65,2001,2,18,16,12,23.81,149.65,1956,3,2325.2,3,24.82,2,35.119,2
Mirai,MR01-K1,66,2001,2,18,17,8,23.59,149.75,1962.3,3,2332.5,3,24.77,2,35.142,2
Mirai,MR01-K1,67,2001,2,18,17,41,23.46,149.8,1955.4,3,2324.2,3,24.92,2,35.124,2
Mirai,MR01-K1,68,2001,2,18,18,38,23.24,149.89,1957.1,3,2326.7,3,24.91,2,35.114,2
Mirai,MR01-K1,69,2001,2,18,19,11,23.12,149.95,1948.3,3,2317.4,3,25.14,2,35.036,2
Mirai,MR01-K1,70,2001,2,18,20,9,22.9,150.04,1954,2,2324.8,2,25.08,2,35.056,2
Mirai,MR01-K1,71,2001,2,18,20,41,22.77,150.09,1951.6,3,2320.8,3,25.08,2,35.092,2
Mirai,MR01-K1,72,2001,2,18,21,38,22.55,150.17,1952,2,2323.1,2,25.23,2,35.066,2
Mirai,MR01-K1,73,2001,2,18,22,10,22.43,150.22,1967.7,3,2337.5,3,24.78,2,35.208,2
Mirai,MR01-K1,74,2001,2,18,23,8,22.21,150.32,1953.2,3,2322.8,3,25,2,35.07,2
Mirai,MR01-K1,75,2001,2,19,5,10,20.74,150.92,1947,2,2323.2,2,26.89,2,35.017,2
Mirai,MR01-K1,76,2001,2,19,5,43,20.61,150.97,1942.6,2,2317.3,2,26.84,2,34.99,2
Mirai,MR01-K1,77,2001,2,19,6,41,20.38,151.07,1943.1,2,2316.6,2,26.82,2,34.995,2
Mirai,MR01-K1,78,2001,2,19,7,13,20.25,151.13,1941.5,2,2315.7,2,26.8,2,35.004,2
Mirai,MR01-K1,79,2001,2,19,8,11,20.03,151.22,1941.1,2,2315.2,2,26.79,2,34.99,2
Mirai,MR01-K1,80,2001,2,19,8,43,19.89,151.26,1939.7,2,2314,2,26.58,2,34.961,2
Mirai,MR01-K1,81,2001,2,19,9,40,19.67,151.36,1940.1,2,2314.8,2,26.63,2,34.987,2
Mirai,MR01-K1,82,2001,2,19,10,12,19.55,151.41,1939.1,2,2312.5,2,26.64,2,34.97,2
Mirai,MR01-K1,83,2001,2,19,11,10,19.33,151.51,1940.3,2,2314.9,2,26.67,2,34.967,2
Mirai,MR01-K1,84,2001,2,19,11,42,19.2,151.56,1939.3,2,2312.5,2,26.67,2,34.951,2
Mirai,MR01-K1,85,2001,2,19,12,40,18.98,151.66,1941.5,2,2316.1,2,26.7,2,34.968,2
Mirai,MR01-K1,86,2001,2,19,13,12,18.86,151.72,1940.2,2,2314.4,2,26.65,2,34.961,2
Mirai,MR01-K1,87,2001,2,19,14,9,18.64,151.81,1942.1,2,2316.9,2,26.67,2,34.962,2
Mirai,MR01-K1,88,2001,2,19,14,42,18.51,151.86,1939.1,2,2312.6,2,26.62,2,34.963,2
Mirai,MR01-K1,89,2001,2,19,15,39,18.28,151.96,1941.1,2,2315.6,2,26.83,2,35.013,2
Mirai,MR01-K1,90,2001,2,19,16,12,18.16,152.01,1948.3,2,2322.1,2,27.22,2,35.068,2
Mirai,MR01-K1,91,2001,2,19,17,9,17.93,152.11,1944.9,2,2318,2,27.12,2,35.044,2
Mirai,MR01-K1,92,2001,2,19,17,42,17.8,152.16,1946.5,2,2320.4,2,27.13,2,35.052,2
Mirai,MR01-K1,93,2001,2,19,18,38,17.59,152.25,1946,2,2318,2,27.25,2,35.017,2
Mirai,MR01-K1,94,2001,2,19,19,11,17.46,152.3,1949.9,2,2320.2,2,27.34,2,35.027,2
Mirai,MR01-K1,95,2001,2,19,20,8,17.23,152.38,1953.4,2,2317.7,2,27.2,2,34.991,2
Mirai,MR01-K1,96,2001,2,19,20,41,17.1,152.43,1949.9,2,2313.6,2,27.18,2,34.95,2
Mirai,MR01-K1,97,2001,2,19,21,39,16.87,152.51,1939.7,2,2303.9,2,27.14,2,34.781,2
Mirai,MR01-K1,98,2001,2,19,22,11,16.74,152.56,1933.4,2,2296,2,27.15,2,34.675,2
Mirai,MR01-K1,99,2001,2,19,23,8,16.52,152.65,1928.7,2,2291.6,2,27.19,2,34.64,2
Mirai,MR01-K1,100,2001,2,20,3,40,15.49,153.07,1922.3,2,2284.6,2,27.3,2,34.515,2
Mirai,MR01-K1,101,2001,2,20,4,13,15.37,153.12,1919.6,2,2281.2,2,27.32,2,34.488,2
Mirai,MR01-K1,102,2001,2,20,5,10,15.15,153.2,1918.5,3,2280,3,27.35,2,34.485,2
Mirai,MR01-K1,103,2001,2,20,5,43,15.02,153.25,1920.6,2,2282.3,2,27.35,2,34.521,2
Mirai,MR01-K1,104,2001,2,20,6,41,14.8,153.34,1927.2,2,2289.2,2,27.34,2,34.597,2
Mirai,MR01-K1,105,2001,2,20,7,13,14.67,153.38,1925.1,3,2287.4,3,27.32,2,34.574,2
Mirai,MR01-K1,106,2001,2,20,8,10,14.45,153.45,1920.4,3,2282.4,3,27.3,2,34.51,2
Mirai,MR01-K1,107,2001,2,20,8,42,14.32,153.5,1914.7,3,2276.1,3,27.3,2,34.41,2
Mirai,MR01-K1,108,2001,2,20,9,40,14.1,153.58,1917.8,3,2278.9,3,27.28,2,34.466,2
Mirai,MR01-K1,109,2001,2,20,10,12,13.97,153.63,1924.7,3,2286.5,3,27.26,2,34.57,2
Mirai,MR01-K1,110,2001,2,20,11,10,13.75,153.72,1918.2,3,2280.3,3,27.32,2,34.483,2
Mirai,MR01-K1,111,2001,2,20,11,42,13.63,153.77,1911.2,3,2272.8,3,27.35,2,34.365,2
Mirai,MR01-K1,112,2001,2,20,12,39,13.41,153.85,1908.6,3,2269.8,3,27.42,2,34.329,2
Mirai,MR01-K1,113,2001,2,20,13,12,13.28,153.9,1910.4,3,2271.6,3,27.4,2,34.341,2
Mirai,MR01-K1,114,2001,2,20,14,9,13.05,153.99,1907.4,3,2268.8,3,27.42,2,34.313,2
Mirai,MR01-K1,115,2001,2,20,14,42,12.92,154.03,1905.9,3,2267.5,3,27.51,2,34.282,2
Mirai,MR01-K1,116,2001,2,20,15,39,12.7,154.12,1907.1,3,2268.9,3,27.6,2,34.288,2
Mirai,MR01-K1,117,2001,2,20,16,12,12.57,154.17,1904.4,3,2265.3,3,27.65,2,34.244,2
Mirai,MR01-K1,118,2001,2,20,17,8,12.35,154.26,1906.1,3,2267.3,3,27.57,2,34.234,2
Mirai,MR01-K1,119,2001,2,20,17,41,12.23,154.31,1906.3,3,2265.8,3,27.48,2,34.263,2
Mirai,MR01-K1,120,2001,2,20,18,38,12,154.4,1907.4,3,2267.4,3,27.5,2,34.264,2
Mirai,MR01-K1,121,2001,2,20,19,11,11.88,154.45,1907.9,3,2268.4,3,27.52,2,34.266,2
Mirai,MR01-K1,122,2001,2,20,20,9,11.65,154.54,1906,3,2266.3,3,27.5,2,34.259,2
Mirai,MR01-K1,123,2001,2,20,20,41,11.53,154.59,1905.3,2,2265.3,2,27.51,2,34.25,2
Mirai,MR01-K1,124,2001,2,20,21,38,11.31,154.69,1905.5,2,2266.5,2,27.57,2,34.252,2
Mirai,MR01-K1,125,2001,2,20,22,10,11.17,154.74,1905.3,2,2265.9,2,27.52,2,34.239,2
Mirai,MR01-K1,126,2001,2,20,23,8,10.94,154.82,1906.1,3,2267.1,3,27.82,2,34.27,2
Mirai,MR01-K1,127,2001,2,20,23,40,10.82,154.86,1906.8,3,2265.5,3,27.86,2,34.243,2
Mirai,MR01-K1,128,2001,2,21,3,40,9.88,155.23,1908.5,2,2266.9,2,28.3,2,34.294,2
Mirai,MR01-K1,129,2001,2,21,4,13,9.75,155.27,1910.6,2,2269,2,28.34,2,34.319,2
Mirai,MR01-K1,130,2001,2,21,5,10,9.53,155.36,1912.1,2,2271.3,2,28.44,2,34.368,2
Mirai,MR01-K1,131,2001,2,21,5,43,9.4,155.41,1911.8,2,2271.3,2,28.46,2,34.354,2
Mirai,MR01-K1,132,2001,2,21,6,41,9.17,155.5,1908.4,2,2267.2,2,28.33,2,34.314,2
Mirai,MR01-K1,133,2001,2,21,7,13,9.04,155.55,1908.6,2,2267.5,2,28.28,2,34.295,2
Mirai,MR01-K1,134,2001,2,21,8,10,8.82,155.64,1910.6,2,2269.6,2,28.38,2,34.325,2
Mirai,MR01-K1,135,2001,2,21,8,42,8.69,155.69,1909.8,2,2270.3,2,28.45,2,34.346,2
Mirai,MR01-K1,136,2001,2,21,9,40,8.45,155.78,1910.5,2,2271.1,2,28.37,2,34.332,2
Mirai,MR01-K1,137,2001,2,21,10,12,8.32,155.83,1908.7,2,2267.6,2,28.26,2,34.306,2
Mirai,MR01-K1,138,2001,2,21,11,10,8.1,155.92,1909.3,2,2268.4,2,28.25,2,34.308,2
Mirai,MR01-K1,139,2001,2,21,11,42,8.02,155.93,1908.9,2,2268.1,2,28.22,2,34.306,2
Mirai,MR01-K1,140,2001,2,21,12,39,8.01,155.9,1909.4,2,2268.4,2,28.22,2,34.313,2
Mirai,MR01-K1,141,2001,2,21,13,12,8.01,155.89,1911.1,3,2270.2,3,28.21,2,34.315,2
Mirai,MR01-K1,142,2001,2,21,14,9,8.02,155.89,1910,2,2268.9,2,28.2,2,34.311,2
Mirai,MR01-K1,143,2001,2,21,14,42,8.02,155.89,1909.3,2,2267.4,2,28.19,2,34.307,2
Mirai,MR01-K1,144,2001,2,21,15,39,8.02,155.89,1911.3,2,2270.2,2,28.2,2,34.308,2
Mirai,MR01-K1,145,2001,2,21,16,12,8.01,155.89,1909.2,3,2267.1,3,28.19,2,34.31,2
Mirai,MR01-K1,146,2001,2,21,17,8,8,155.89,1910.3,2,2268.8,2,28.18,2,34.311,2
Mirai,MR01-K1,147,2001,2,21,17,41,8,155.89,1909.8,2,2267.9,2,28.18,2,34.311,2
Mirai,MR01-K1,148,2001,2,21,18,38,8.01,155.91,1910.5,2,2268.9,2,28.17,2,34.312,2
Mirai,MR01-K1,149,2001,2,21,19,11,8.02,155.93,1909.7,2,2267.8,2,28.18,2,34.309,2
Mirai,MR01-K1,150,2001,2,21,20,9,8.02,155.96,1910,2,2268.7,2,28.17,2,34.305,2
Mirai,MR01-K1,151,2001,2,23,4,10,7.47,155.97,1914.5,3,2274.8,3,28.26,2,34.292,2
Mirai,MR01-K1,152,2001,2,23,4,43,7.33,155.98,1917.1,3,2277.5,3,28.25,2,34.297,2
Mirai,MR01-K1,153,2001,2,23,5,40,7.09,155.99,1907.2,3,2266.8,3,28.27,2,34.219,2
Mirai,MR01-K1,154,2001,2,23,6,13,6.96,155.99,1905.8,3,2265.3,3,28.35,2,34.196,2
Mirai,MR01-K1,155,2001,2,23,7,11,6.72,155.99,1888.8,2,2248,2,28.41,2,33.918,2
Mirai,MR01-K1,156,2001,2,23,7,43,6.58,156,1889.8,2,2247.3,2,28.64,2,33.939,2
Mirai,MR01-K1,157,2001,2,23,8,40,6.34,156.01,1904,3,2263,3,28.79,2,34.204,2
Mirai,MR01-K1,158,2001,2,23,9,12,6.2,156.02,1905.3,3,2265.7,3,28.84,2,34.248,2
Mirai,MR01-K1,159,2001,2,23,10,10,5.97,156.03,1876.8,3,2243.8,3,28.41,2,33.737,2
Mirai,MR01-K1,160,2001,2,23,14,40,5.01,156.09,1913.3,3,2274,3,28.94,2,34.338,2
Mirai,MR01-K1,161,2001,2,23,15,13,5,156.09,1910.1,3,2269.1,3,28.93,2,34.322,2
Mirai,MR01-K1,162,2001,2,23,16,10,4.99,156.09,1910.9,3,2270,3,28.92,2,34.32,2
Mirai,MR01-K1,163,2001,2,23,16,43,4.99,156.09,1912.8,3,2272.2,3,28.91,2,34.353,2
Mirai,MR01-K1,164,2001,2,23,17,41,4.98,156.09,1913.5,3,2272.7,3,28.95,2,34.385,2
Mirai,MR01-K1,165,2001,2,23,18,13,4.99,156.1,1913.5,3,2272.9,3,28.96,2,34.379,2
Mirai,MR01-K1,166,2001,2,23,19,10,4.99,156.11,1911.8,3,2270.7,3,28.95,2,34.382,2
Mirai,MR01-K1,167,2001,2,23,19,42,5,156.11,1914.3,3,2274,3,28.94,2,34.379,2
Mirai,MR01-K1,168,2001,2,23,20,40,4.96,156.07,1916.5,3,2276.5,3,29.02,2,34.427,2
Mirai,MR01-K1,169,2001,2,23,21,12,4.96,156.06,1914,3,2273.5,3,29.02,2,34.425,2
Mirai,MR01-K1,170,2001,2,23,22,10,5.06,156.01,1910.4,3,2271.5,3,28.96,2,34.35,2
Mirai,MR01-K1,171,2001,2,25,1,10,4.98,156.11,1934,3,2298.6,3,29.13,2,34.488,2
Mirai,MR01-K1,172,2001,2,25,1,43,4.93,156.11,1931.5,3,2294.6,3,29.15,2,34.491,2
Mirai,MR01-K1,173,2001,2,25,2,40,4.68,156.08,1931.8,3,2293.3,3,29.28,2,34.573,2
Mirai,MR01-K1,174,2001,2,25,3,13,4.55,156.06,1931.5,3,2290.9,3,29.3,2,34.61,2
Mirai,MR01-K1,175,2001,2,25,4,11,4.3,156.03,1942.2,2,2298.8,2,29.28,2,34.698,2
Mirai,MR01-K1,176,2001,2,25,4,43,4.16,156.02,1945.7,2,2301.8,2,29.24,2,34.724,2
Mirai,MR01-K1,177,2001,2,25,5,40,3.93,156,1947.6,2,2303,2,29.25,2,34.784,2
Mirai,MR01-K1,178,2001,2,25,6,12,3.79,155.99,1949.1,2,2304.3,2,29.25,2,34.817,2
Mirai,MR01-K1,179,2001,2,25,7,10,3.54,155.97,1954.4,2,2310.4,2,29.2,2,34.932,2
Mirai,MR01-K1,180,2001,2,25,7,42,3.41,155.97,1961.8,2,2317.9,2,29.15,2,34.984,2
Mirai,MR01-K1,181,2001,2,25,8,40,3.15,155.95,1963.4,2,2314.6,2,29.11,2,35.001,2
Mirai,MR01-K1,182,2001,2,25,9,12,3.01,155.93,1976.8,2,2331.5,2,29.14,2,35.227,2
Mirai,MR01-K1,183,2001,2,25,10,9,2.79,155.91,1985.7,2,2337.1,2,29.07,2,35.319,2
Mirai,MR01-K1,184,2001,2,25,10,42,2.66,155.9,1985.5,2,2337.3,2,29.06,2,35.318,2
Mirai,MR01-K1,185,2001,2,25,11,39,2.42,155.88,1982.7,2,2334.7,2,29.03,2,35.315,2
Mirai,MR01-K1,186,2001,2,25,12,12,2.28,155.87,1987.3,2,2337,2,29.03,2,35.33,2
Mirai,MR01-K1,187,2001,2,25,13,9,2.04,155.84,1987.6,2,2336.8,2,29.02,2,35.354,2
Mirai,MR01-K1,188,2001,2,25,13,42,1.95,155.83,1992.3,2,2339.9,2,29.01,2,35.376,2
Mirai,MR01-K1,189,2001,2,25,14,38,1.94,155.81,1991.2,2,2338.9,2,28.98,2,35.378,2
Mirai,MR01-K1,190,2001,2,25,15,11,1.94,155.8,1991.3,2,2338,2,28.96,2,35.372,2
Mirai,MR01-K1,191,2001,2,25,16,8,1.94,155.79,1991.2,2,2338.5,2,28.96,2,35.364,2
Mirai,MR01-K1,192,2001,2,25,16,41,1.94,155.79,1990.6,2,2336.1,2,28.95,2,35.37,2
Mirai,MR01-K1,193,2001,2,25,17,38,1.94,155.8,1997.9,2,2345.3,2,28.95,2,35.373,2
Mirai,MR01-K1,194,2001,2,25,18,11,1.94,155.8,1992,2,2336.8,2,28.94,2,35.369,2
Mirai,MR01-K1,195,2001,2,25,19,8,1.94,155.81,1993.9,2,2339.6,2,28.93,2,35.371,2
Mirai,MR01-K1,196,2001,2,25,19,40,1.95,155.83,1995,2,2340.2,2,28.94,2,35.376,2
Mirai,MR01-K1,197,2001,2,25,20,38,1.94,155.86,1993.8,3,2339,3,28.93,2,35.383,2
Mirai,MR01-K1,198,2001,2,25,21,10,1.98,155.88,1995.6,2,2341.7,2,28.97,2,35.386,2
Mirai,MR01-K1,199,2001,2,25,22,8,2.02,155.96,1994.5,2,2340.8,2,28.97,2,35.385,2
Mirai,MR01-K1,200,2001,2,26,2,40,2.05,156.02,1996,3,2341.9,3,29.21,2,35.397,2
Mirai,MR01-K1,201,2001,2,26,3,13,2.05,156.02,1995.5,3,2340.5,3,29.24,2,35.403,2
Mirai,MR01-K1,202,2001,2,26,4,10,2.06,156.02,1996,3,2341.3,3,29.29,2,35.405,2
Mirai,MR01-K1,203,2001,2,26,4,43,2,155.94,1995.3,3,2340.5,3,29.35,2,35.403,2
Mirai,MR01-K1,204,2001,2,26,5,41,1.96,155.86,1992.5,3,2338.9,3,29.25,2,35.398,2
Mirai,MR01-K1,205,2001,2,26,6,13,1.94,155.86,1994.3,3,2341.5,3,29.31,2,35.398,2
Mirai,MR01-K1,206,2001,2,26,7,10,1.93,155.86,1993.8,2,2341.1,2,29.29,2,35.4,2
Mirai,MR01-K1,207,2001,2,26,7,42,1.94,155.84,1993.8,2,2341.1,2,29.22,2,35.399,2
Mirai,MR01-K1,208,2001,2,26,8,40,1.94,155.84,1993.2,3,2340.7,3,29.2,2,35.396,2
Mirai,MR01-K1,209,2001,2,26,9,12,1.94,155.84,1994.6,2,2342.5,2,29.16,2,35.397,2
Mirai,MR01-K1,210,2001,2,26,10,10,1.95,155.84,1993.6,2,2341.4,2,29.14,2,35.395,2
Mirai,MR01-K1,211,2001,2,26,10,42,1.95,155.83,1996.7,2,2344.8,2,29.15,2,35.397,2
Mirai,MR01-K1,212,2001,2,26,11,39,1.95,155.82,1994.6,2,2342.4,2,29.15,2,35.398,2
Mirai,MR01-K1,213,2001,2,26,12,12,1.96,155.81,1993,2,2339.9,2,29.15,2,35.397,2
Mirai,MR01-K1,214,2001,2,26,13,9,1.97,155.79,1993.6,2,2341.3,2,29.13,2,35.398,2
Mirai,MR01-K1,215,2001,2,26,13,42,1.98,155.79,1993.7,2,2340.5,2,29.12,2,35.398,2
Mirai,MR01-K1,216,2001,2,26,14,39,1.99,155.78,1996,2,2344,2,29.1,2,35.396,2
Mirai,MR01-K1,217,2001,2,26,15,12,1.99,155.78,1992.7,2,2339.3,2,29.09,2,35.376,2
Mirai,MR01-K1,218,2001,2,26,16,8,2.01,155.76,1990,2,2336.7,2,29.04,2,35.339,2
Mirai,MR01-K1,219,2001,2,26,16,41,2.02,155.76,1992.6,2,2339.7,2,29.04,2,35.363,2
Mirai,MR01-K1,220,2001,2,26,17,38,2.03,155.75,1994.4,2,2342.5,2,29.04,2,35.368,2
Mirai,MR01-K1,221,2001,2,26,18,11,2.03,155.75,1992.1,2,2339.6,2,29.03,2,35.374,2
Mirai,MR01-K1,222,2001,2,26,19,8,2.03,155.75,1993.7,2,2341.5,2,29.03,2,35.374,2
Mirai,MR01-K1,223,2001,2,26,19,41,2.03,155.76,1994,2,2341.5,2,29.02,2,35.378,2
Mirai,MR01-K1,224,2001,2,26,20,38,1.98,155.81,1992.3,2,2339.1,2,29.02,2,35.379,2
Mirai,MR01-K1,225,2001,2,26,21,10,1.94,155.85,1997.3,2,2344.1,2,28.98,2,35.384,2
Mirai,MR01-K1,226,2001,2,26,22,8,1.94,155.86,1993.6,2,2339.9,2,28.98,2,35.386,2
Mirai,MR01-K1,227,2001,2,26,22,40,1.94,155.85,1995,2,2341,2,29,2,35.383,2
Mirai,MR01-K1,228,2001,2,27,2,40,1.46,155.92,1986.9,3,2334.7,3,29.08,2,35.248,2
Mirai,MR01-K1,229,2001,2,27,3,13,1.42,155.92,1991,3,2337.6,3,29,2,35.345,2
Mirai,MR01-K1,230,2001,2,27,4,10,1.42,155.91,1990.9,2,2337.5,2,29.07,2,35.347,2
Mirai,MR01-K1,231,2001,2,27,4,43,1.42,155.91,1991,2,2337.6,2,29.04,2,35.346,2
Mirai,MR01-K1,232,2001,2,27,5,41,1.25,155.94,1992.6,2,2339.2,2,29.43,2,35.359,2
Mirai,MR01-K1,233,2001,2,27,6,13,1.11,155.96,1992,3,2337.6,3,29.53,2,35.375,2
Mirai,MR01-K1,234,2001,2,27,7,10,0.88,156,1992,2,2337.3,2,29.46,2,35.376,2
Mirai,MR01-K1,235,2001,2,27,7,42,0.75,156.02,1976.5,2,2347.7,2,29.75,2,35.449,2
Mirai,MR01-K1,236,2001,2,27,8,40,0.51,156.06,1965.8,3,2338.7,3,29.67,2,35.344,2
Mirai,MR01-K1,237,2001,2,27,9,12,0.37,156.08,1964.3,3,2335.7,3,29.59,2,35.301,2
Mirai,MR01-K1,238,2001,2,27,10,10,0.13,156.11,1968.7,3,2339.2,3,29.66,2,35.368,2
Mirai,MR01-K1,239,2001,2,27,10,42,0.01,156.13,1960.5,3,2331.9,3,29.41,2,35.251,2
Mirai,MR01-K1,240,2001,2,27,11,39,0.01,156.13,1962.2,3,2334.9,3,29.38,2,35.234,2
Mirai,MR01-K1,241,2001,2,27,12,12,0.03,156.13,1960.3,3,2332.1,3,29.36,2,35.24,2
Mirai,MR01-K1,242,2001,2,27,13,9,0.05,156.14,1962.4,3,2334.5,3,29.33,2,35.247,2
Mirai,MR01-K1,243,2001,2,27,13,42,0.06,156.15,1960.2,3,2331.7,3,29.32,2,35.249,2
Mirai,MR01-K1,244,2001,2,27,14,39,0.07,156.17,1962.1,3,2333.8,3,29.31,2,35.259,2
Mirai,MR01-K1,245,2001,2,27,15,12,0.09,156.18,1963.1,3,2334.4,3,29.31,2,35.265,2
Mirai,MR01-K1,246,2001,2,27,16,8,0.11,156.19,1963.1,3,2334.5,3,29.31,2,35.27,2
Mirai,MR01-K1,247,2001,2,27,16,41,0.12,156.19,1962.7,3,2333.7,3,29.32,2,35.273,2
Mirai,MR01-K1,248,2001,2,27,17,38,0.14,156.2,1964.4,3,2335.5,3,29.37,2,35.297,2
Mirai,MR01-K1,249,2001,2,27,18,11,0.15,156.21,1970.4,3,2340.3,3,29.46,2,35.367,2
Mirai,MR01-K1,250,2001,2,27,19,8,0.1,156.19,1963.6,3,2333.9,3,29.3,2,35.282,2
Mirai,MR01-K1,251,2001,2,27,19,41,0.01,156.14,1960.1,3,2330.6,3,29.33,2,35.215,2
Mirai,MR01-K1,252,2001,2,28,5,40,-0.01,155.89,1935,3,2302.2,3,29.46,2,35.061,2
Mirai,MR01-K1,253,2001,2,28,6,13,0,155.87,1949.4,3,2320.9,3,29.47,2,35.055,2
Mirai,MR01-K1,254,2001,2,28,7,11,-0.02,155.88,1933.7,3,2301.2,3,29.42,2,35.042,2
Mirai,MR01-K1,255,2001,2,28,7,43,0,155.99,1944,3,2314,3,29.38,2,35.058,2
Mirai,MR01-K1,256,2001,2,28,8,41,0.02,156.05,1946.3,3,2317,3,29.32,2,35.072,2
Mirai,MR01-K1,257,2001,2,28,9,13,0.02,156.05,1930.3,3,2296.6,3,29.31,2,35.075,2
Mirai,MR01-K1,258,2001,2,28,10,10,0.03,156.06,1946.3,3,2317,3,29.3,2,35.085,2
Mirai,MR01-K1,259,2001,2,28,10,42,0.03,156.07,1947.2,2,2318,2,29.29,2,35.088,2
Mirai,MR01-K1,260,2001,2,28,11,40,0.03,156.08,1951.2,2,2323.3,2,29.27,2,35.091,2
Mirai,MR01-K1,261,2001,2,28,12,12,0.04,156.08,1948.5,3,2319.8,3,29.26,2,35.092,2
Mirai,MR01-K1,262,2001,2,28,13,10,0.04,156.1,1947.2,3,2317.7,3,29.25,2,35.095,2
Mirai,MR01-K1,263,2001,2,28,13,42,0.04,156.11,1953.3,2,2325.6,2,29.25,2,35.096,2
Mirai,MR01-K1,264,2001,2,28,14,39,0.05,156.12,1950.4,3,2321.3,3,29.24,2,35.101,2
Mirai,MR01-K1,265,2001,2,28,15,12,0.05,156.13,1948.6,3,2318.5,3,29.23,2,35.105,2
Mirai,MR01-K1,266,2001,2,28,16,9,0.06,156.15,1951.1,3,2321.4,3,29.23,2,35.112,2
Mirai,MR01-K1,267,2001,2,28,16,42,0.06,156.16,1951.2,3,2321.4,3,29.23,2,35.114,2
Mirai,MR01-K1,268,2001,2,28,17,39,0.07,156.17,1951.5,3,2321.6,3,29.21,2,35.12,2
Mirai,MR01-K1,269,2001,2,28,18,12,0.08,156.18,1951,3,2320.5,3,29.22,2,35.124,2
Mirai,MR01-K1,270,2001,2,28,19,8,0.08,156.19,1952.7,3,2322.9,3,29.22,2,35.131,2
Mirai,MR01-K1,271,2001,2,28,19,41,0.09,156.19,1954.3,3,2324.5,3,29.21,2,35.136,2
Mirai,MR01-K1,272,2001,2,28,20,38,0.1,156.2,1954.3,3,2324.3,3,29.25,2,35.159,2
Mirai,MR01-K1,273,2001,2,28,21,11,0.1,156.2,1956.3,3,2326.7,3,29.28,2,35.172,2
Mirai,MR01-K1,274,2001,3,1,1,10,0.08,156.18,1952.9,2,2323.8,2,29.39,2,35.134,2
Mirai,MR01-K1,275,2001,3,1,1,43,0.07,156.17,1951.5,2,2321.5,2,29.44,2,35.131,2
Mirai,MR01-K1,276,2001,3,1,2,41,0.07,156.18,1952.1,2,2322.8,2,29.41,2,35.129,2
Mirai,MR01-K1,277,2001,3,1,3,13,0.07,156.18,1950.2,2,2320,2,29.48,2,35.131,2
Mirai,MR01-K1,278,2001,3,1,4,11,0.07,156.18,1950.9,2,2321.2,2,29.49,2,35.129,2
Mirai,MR01-K1,279,2001,3,1,4,43,0.06,156.18,1950.8,2,2321.1,2,29.56,2,35.127,2
Mirai,MR01-K1,280,2001,3,1,5,40,0.07,156.19,1951.3,2,2322.2,2,29.45,2,35.127,2
Mirai,MR01-K1,281,2001,3,1,6,12,0.07,156.19,1950.3,2,2320.9,2,29.51,2,35.13,2
Mirai,MR01-K1,282,2001,3,1,7,10,0.08,156.2,1951.9,2,2322.8,2,29.45,2,35.135,2
Mirai,MR01-K1,283,2001,3,1,7,42,0.08,156.2,1952,2,2323.3,2,29.44,2,35.134,2
Mirai,MR01-K1,284,2001,3,1,8,40,0.08,156.2,1949.8,2,2320.3,2,29.39,2,35.134,2